Theta_e
285 285 286 289 288 288 286 286 286 287 287 286 286 286 285 285 285 284 284 284 284 284 284 284 284 284 283 284 284 284 284 284 282 284 285 286 286 286 287 288 288 287 287
284 284 284 286 288 286 286 285 286 286 286 285 285 285 285 285 284 283 283 283 282 281 282 282 282 284 282 283 283 283 283 283 283 281 283 285 286 285 286 286 287 288 287
282 282 282 283 285 286 285 286 286 286 286 286 285 284 284 284 284 284 283 283 282 282 281 281 281 281 281 281 281 281 282 284 282 281 282 284 284 285 284 285 285 286 287
281 281 280 280 282 284 287 286 286 286 285 285 284 284 284 285 285 284 284 282 281 281 282 281 281 281 280 280 280 280 281 280 279 279 279 280 281 283 283 282 282 284 285
280 280 279 280 280 281 283 284 285 285 284 284 284 284 284 284 284 282 282 281 281 280 281 282 282 282 284 283 281 280 279 278 278 278 279 279 280 281 280 282 282 283 283
278 278 280 279 278 279 281 283 284 284 283 283 283 282 282 283 285 286 284 282 282 281 280 281 282 282 283 285 285 285 283 279 280 279 278 278 278 280 282 282 282 280 279
278 278 279 279 277 277 278 281 282 282 282 282 282 282 282 282 285 285 285 282 281 281 280 281 281 282 280 281 283 283 282 283 283 281 279 279 279 280 280 280 280 279 278
277 277 278 279 278 278 277 279 280 281 281 281 282 282 281 281 285 285 285 281 280 280 280 280 280 280 281 280 280 279 279 280 280 280 280 281 280 281 281 281 280 280 281
275 276 276 277 276 278 279 280 281 280 280 280 281 280 279 279 284 284 283 280 280 279 280 280 280 280 282 283 280 278 278 278 282 283 284 285 286 286 286 284 282 281 278
275 275 276 275 275 275 278 279 281 281 280 280 280 280 279 278 282 283 283 278 276 278 276 279 281 279 282 282 280 278 277 277 278 279 279 281 284 283 286 285 283 280 278
276 275 275 275 275 276 278 280 281 279 279 276 276 276 274 275 278 282 283 280 278 277 277 278 279 282 282 282 283 280 279 280 280 279 279 281 278 279 282 283 282 282 279
274 274 273 274 275 276 277 279 279 278 276 274 273 274 276 278 280 281 282 282 281 279 277 278 278 282 282 282 282 282 282 282 280 277 276 276 278 277 280 283 282 281 281
272 271 272 273 274 276 276 276 276 277 275 275 275 274 276 278 279 282 282 282 282 280 279 279 281 282 282 281 282 282 279 278 275 275 275 276 278 280 281 280 280 279 280
270 270 271 272 272 273 274 276 275 275 275 276 275 275 275 277 277 278 278 278 279 279 279 278 279 280 281 280 278 279 277 276 276 275 275 276 277 277 278 281 278 278 277
270 270 270 271 271 272 273 274 275 276 276 275 274 274 272 274 276 279 279 278 278 279 278 277 276 275 274 274 275 274 275 276 276 275 276 276 277 276 278 279 278 274 276
269 269 269 269 270 271 272 272 276 278 279 280 280 280 278 280 281 281 282 281 281 281 277 274 273 274 273 273 273 271 270 272 275 275 275 275 275 276 278 276 275 274 274
268 269 268 269 269 270 270 270 270 273 276 278 278 280 280 280 280 280 280 280 280 279 274 272 272 272 272 272 272 270 271 270 272 274 273 273 274 276 275 275 275 273 274
268 268 268 268 269 269 269 269 269 268 268 269 274 276 277 278 278 278 278 278 270 268 266 269 270 270 271 270 268 266 267 268 269 271 272 274 275 277 275 275 272 274 275
267 267 267 268 268 269 269 269 269 269 269 268 269 271 271 275 276 276 276 271 267 267 262 263 264 264 265 264 267 267 267 267 268 270 271 273 276 276 275 274 273 273 274
267 267 266 266 267 267 268 268 268 267 267 267 267 267 262 262 264 264 264 266 267 267 267 266 265 263 262 261 265 266 266 267 268 270 272 274 276 275 275 272 272 273 272
263 265 265 266 266 266 267 267 267 266 265 266 266 268 272 270 268 265 263 261 264 266 266 267 264 264 264 264 265 264 265 265 267 270 274 276 274 274 272 273 272 274 269
263 264 263 262 264 265 265 266 266 265 264 263 264 265 270 267 264 264 264 263 263 262 262 265 265 261 263 264 264 264 265 265 267 269 273 274 274 273 272 272 274 271 271
262 261 262 262 263 264 264 264 265 264 264 264 264 264 264 263 263 263 263 263 263 263 262 262 264 264 264 265 264 265 264 264 267 270 272 273 274 272 273 269 268 270 269
259 260 261 262 263 263 263 263 263 264 263 263 263 264 264 263 263 263 263 263 263 263 263 263 263 263 264 264 265 266 267 267 269 271 273 275 274 274 270 269 270 270 268
259 260 262 261 261 261 262 262 262 262 262 263 263 263 263 263 263 262 262 263 262 263 262 263 264 264 264 265 265 265 267 268 269 271 271 275 274 272 272 269 270 267 261
260 262 261 261 261 260 260 260 261 261 261 262 262 262 262 262 262 262 262 262 262 262 262 263 265 265 265 266 266 267 268 270 270 271 272 275 273 271 270 270 267 264 260
Wind_Speed
15 17 18 17 13 11 8 8 7 7 7 7 7 6 6 6 6 5 5 6 5 5 5 5 6 5 4 4 4 3 4 4 10 7 4 3 5 7 8 8 7 7 6
15 16 17 19 17 11 10 8 7 8 7 7 6 6 6 6 6 6 6 5 5 5 6 5 6 5 5 5 4 5 4 5 7 12 5 5 8 8 11 13 12 10 11
15 15 17 18 19 16 12 10 8 9 7 6 6 6 5 6 6 5 6 6 6 6 6 6 6 5 5 4 5 4 4 5 4 5 8 6 8 9 12 12 11 10 8
17 16 17 17 16 18 16 8 7 7 7 6 6 5 5 4 5 5 5 6 6 6 6 6 6 6 6 6 5 5 5 4 4 6 7 7 7 7 9 10 10 6 7
18 18 17 17 16 16 15 9 7 11 7 6 4 9 8 6 5 6 6 5 5 6 6 6 7 7 11 9 5 6 5 5 6 7 9 8 7 7 9 8 10 9 7
17 19 18 15 13 14 14 11 12 9 10 10 8 9 6 6 11 13 9 6 7 6 7 7 7 8 10 17 17 16 12 7 10 10 11 10 11 9 8 8 9 9 10
16 18 18 16 14 12 11 10 11 11 9 6 6 7 12 9 14 16 15 6 6 7 7 8 7 6 7 7 12 15 14 17 18 12 12 12 12 10 10 12 11 11 11
16 16 16 17 16 14 10 11 13 11 10 10 11 11 11 8 16 18 16 6 7 8 9 8 8 9 8 6 8 9 9 10 12 9 12 12 11 11 11 11 12 13 11
16 16 16 16 18 18 17 16 14 11 10 10 9 9 9 9 15 17 13 5 7 8 7 8 8 9 13 16 9 9 11 11 13 20 22 24 25 24 21 10 9 8 9
16 17 17 16 16 18 18 17 13 10 10 9 9 8 9 9 13 14 12 2 4 6 4 7 14 10 15 17 11 9 11 10 8 9 9 13 17 13 20 14 10 10 8
16 17 17 16 16 16 17 14 12 7 8 4 5 4 6 5 6 13 15 7 6 5 5 5 5 14 17 18 19 10 10 10 13 11 9 9 6 8 9 10 9 9 8
15 16 17 16 13 13 16 13 10 7 5 5 4 5 4 5 10 12 12 13 12 7 7 6 5 16 19 19 16 18 22 20 8 6 7 9 9 6 8 9 11 9 7
15 16 15 16 14 13 13 13 9 6 5 6 5 4 5 4 5 10 12 14 14 9 5 9 18 19 21 18 19 21 15 7 5 7 9 9 8 8 10 5 7 5 7
15 15 14 14 15 14 11 9 9 7 7 7 5 6 4 4 3 3 3 5 10 9 11 9 13 17 19 16 11 12 6 6 7 8 8 8 8 7 9 5 2 3 6
14 13 13 10 12 13 11 10 9 8 8 7 5 4 3 6 3 6 7 5 5 8 9 5 5 4 6 7 8 7 7 6 7 6 8 9 8 7 10 6 5 4 7
14 12 10 10 10 10 10 12 15 20 20 20 21 16 7 15 19 18 18 18 19 19 8 7 7 7 7 7 6 4 3 5 6 7 8 8 8 9 9 3 3 5 6
14 14 11 11 10 10 10 10 12 12 19 20 18 20 19 18 19 18 18 19 20 17 6 6 7 6 5 3 3 3 5 3 4 7 8 9 9 10 6 4 5 4 5
14 16 11 10 9 11 10 10 8 10 11 9 11 15 16 18 20 19 18 17 5 4 3 6 7 6 6 5 3 3 4 5 7 8 9 9 9 9 4 6 4 6 6
13 11 10 10 11 12 10 10 8 9 9 9 8 9 9 17 18 19 18 7 6 6 4 5 5 4 4 3 5 5 6 8 9 9 9 9 10 7 6 5 4 6 5
12 13 13 12 10 11 10 9 8 8 9 8 8 7 3 4 5 5 5 6 7 7 7 8 6 5 5 4 5 7 7 8 9 9 9 9 9 5 7 4 4 4 3
12 12 13 11 9 10 11 9 8 8 9 9 8 7 18 10 6 3 3 3 5 8 7 7 4 4 4 4 4 6 8 10 10 9 11 8 4 6 4 4 3 4 3
13 8 10 11 11 11 9 9 10 9 9 9 9 7 18 7 6 7 7 6 5 5 5 6 6 4 5 6 7 7 9 8 9 9 11 6 4 4 3 3 3 2 2
11 13 12 11 10 13 10 9 9 9 9 10 9 8 7 7 7 8 8 7 6 7 5 5 7 7 7 7 7 8 9 9 9 9 10 6 5 4 3 3 3 2 2
13 13 13 10 11 11 10 9 9 11 11 10 9 9 8 8 8 9 8 8 8 7 6 6 7 10 9 8 8 8 9 9 9 9 15 6 5 5 2 2 2 3 2
12 13 9 10 10 11 11 10 10 10 10 9 9 9 9 8 9 9 8 8 8 8 8 7 8 10 12 14 13 14 13 16 14 14 10 9 6 6 4 3 4 3 2
13 11 10 9 9 9 10 10 11 10 10 10 10 9 9 9 9 9 8 8 8 8 8 8 9 11 13 11 13 15 16 17 15 16 12 8 4 4 4 5 6 3 4
Wind_Direction
329 325 320 305 277 267 259 253 250 252 239 227 218 223 224 224 226 221 228 237 240 244 250 251 258 253 254 258 260 254 246 241 266 273 251 263 293 293 298 307 306 294 279
326 321 317 311 298 273 265 255 245 253 246 238 233 231 229 232 228 225 230 243 238 241 250 254 257 266 262 262 259 255 254 255 269 281 274 279 286 289 287 291 294 293 292
319 320 319 315 312 296 276 268 263 258 241 242 228 230 239 244 243 236 229 235 238 242 245 249 250 257 266 262 261 261 259 273 283 297 293 294 286 284 285 285 283 283 273
317 314 313 312 308 304 294 279 289 271 250 241 238 230 235 256 254 247 244 247 248 246 251 249 249 246 248 256 262 260 274 272 265 272 276 278 278 274 278 283 280 261 269
319 314 308 307 306 301 293 284 268 277 267 243 228 264 230 222 235 231 230 230 242 250 246 244 241 236 244 244 256 260 251 264 267 268 272 274 271 269 274 283 279 279 271
317 315 310 301 302 300 298 282 268 257 261 264 248 234 233 236 239 247 247 222 232 237 251 255 248 252 258 268 272 274 267 248 257 271 273 270 278 277 285 284 282 289 293
313 314 315 310 299 295 294 289 273 259 259 237 254 256 250 230 239 252 251 237 227 238 243 253 259 249 244 247 264 278 285 281 273 269 270 265 272 274 278 277 276 274 273
315 315 320 325 317 306 290 284 278 261 237 234 247 249 241 236 244 253 254 238 235 234 238 245 250 263 255 240 259 270 270 262 265 263 262 263 262 263 261 261 265 270 271
314 315 320 322 316 314 307 299 287 267 252 243 244 241 234 245 245 251 256 234 237 237 238 240 243 254 262 274 276 266 267 263 262 268 273 272 265 267 266 266 255 269 287
318 318 319 318 315 311 306 299 285 263 255 252 246 229 225 238 241 258 268 210 250 254 238 238 241 240 257 269 266 260 264 269 269 273 277 273 270 267 271 266 262 264 266
319 317 317 315 311 309 307 308 296 275 259 235 235 240 238 225 257 273 271 260 249 254 251 251 234 257 268 270 271 265 268 276 277 281 277 281 255 250 254 256 248 247 252
319 317 315 314 313 310 310 310 302 270 254 256 250 259 238 234 244 261 272 269 262 253 253 258 257 270 274 275 278 277 280 285 288 282 282 281 277 270 266 253 239 227 228
318 315 313 312 313 313 314 313 308 291 251 260 245 251 262 221 221 249 270 270 270 269 260 263 273 275 277 280 285 283 285 278 257 269 273 274 274 277 273 243 229 223 241
311 311 311 311 314 316 312 309 306 299 289 269 257 258 259 251 223 207 225 250 264 268 271 271 264 269 264 260 266 267 259 257 259 263 265 272 275 275 275 246 215 210 246
309 307 306 308 310 309 306 305 303 294 280 283 268 258 259 273 240 263 264 249 241 247 258 256 264 261 254 251 249 251 254 248 252 262 269 276 279 281 277 224 219 224 245
306 304 305 305 308 302 304 307 303 303 306 304 296 280 256 260 275 281 283 284 286 288 280 274 268 262 258 264 257 242 227 249 266 264 269 269 271 274 268 223 214 217 241
303 303 299 299 298 303 306 303 305 311 306 305 299 304 303 293 293 295 293 289 286 291 278 275 268 264 267 269 278 275 280 261 282 280 275 271 272 271 238 237 229 221 241
299 297 292 290 293 298 294 294 295 294 301 302 299 301 297 292 289 293 296 297 312 304 264 268 268 266 267 267 262 271 282 284 274 271 272 271 264 260 245 244 220 230 253
303 296 293 299 294 293 286 284 286 287 288 292 298 295 294 295 299 299 302 304 291 280 250 255 248 251 250 250 271 270 269 273 269 269 266 268 267 238 245 236 228 230 242
302 298 307 296 292 294 288 282 285 291 290 289 289 287 284 311 285 265 243 251 259 264 264 253 249 236 233 229 257 265 270 280 283 271 268 257 255 222 237 225 219 239 221
303 295 299 303 302 301 298 292 289 285 286 287 285 282 289 289 295 278 270 251 262 278 280 279 268 248 243 247 256 262 269 266 265 270 265 248 221 236 222 204 215 225 194
299 317 314 303 299 293 288 294 290 285 280 279 282 279 293 299 286 282 277 268 259 250 258 270 268 246 258 264 263 264 267 273 278 275 288 242 234 226 197 204 207 176 166
319 309 301 296 294 298 294 292 289 287 288 287 287 288 284 277 275 275 274 273 269 269 256 250 264 268 264 259 252 255 257 256 262 267 282 264 240 219 202 174 157 154 178
303 298 295 303 306 301 295 292 291 290 290 288 286 283 282 279 277 276 275 275 273 270 260 257 260 264 269 260 254 252 255 261 270 275 280 269 245 213 161 139 154 174 139
299 296 302 307 306 306 304 299 295 293 289 287 287 285 284 282 280 279 279 278 275 274 270 263 259 261 260 260 258 257 256 261 263 269 278 274 246 182 159 135 154 119 114
299 301 302 303 302 303 303 302 297 294 292 291 289 287 285 283 280 280 280 279 277 274 272 272 267 264 266 271 270 266 262 258 255 253 257 249 188 149 143 145 143 126 127